• In Belarus
  • List of Countries
  • For 7 days
  • Water Temperature
  • Satellite Maps
  • Weather Map
  • Weather Widgets
  • user-avatar
    Login

    Hourly Weather Hobart

    Today, 21 November, Tuesday

    Time Temperature Precipitation Wind Pressure Humidity
    00:00 +16°C° 0 mm 2 mps 754 mmHg 76%
    01:00 +16°C° 0 mm 2 mps 753 mmHg 78%
    02:00 +15°C° 0 mm 2 mps 753 mmHg 79%
    03:00 +15°C° 0 mm 2 mps 753 mmHg 80%
    04:00 +14°C° 0 mm 3 mps 753 mmHg 80%
    05:00 +17°C° 0 mm 3 mps 753 mmHg 72%
    06:00 +19°C° 0 mm 2 mps 754 mmHg 63%
    07:00 +21°C° 0 mm 2 mps 754 mmHg 55%
    08:00 +25°C° 0 mm 2 mps 754 mmHg 46%
    09:00 +27°C° 0 mm 2 mps 754 mmHg 37%
    10:00 +30°C° 0 mm 2 mps 754 mmHg 25%
    11:00 +31°C° 0 mm 3 mps 753 mmHg 22%
    12:00 +33°C° 0 mm 3 mps 753 mmHg 20%
    13:00 +34°C° 0 mm 3 mps 753 mmHg 18%
    14:00 +33°C° 0 mm 3 mps 752 mmHg 20%
    15:00 +33°C° 0 mm 4 mps 752 mmHg 22%
    16:00 +33°C° 0 mm 4 mps 752 mmHg 23%
    17:00 +28°C° 0 mm 3 mps 752 mmHg 34%
    18:00 +25°C° 0 mm 3 mps 752 mmHg 46%
    19:00 +21°C° 0 mm 2 mps 752 mmHg 57%
    20:00 +19°C° 0 mm 2 mps 752 mmHg 63%
    21:00 +18°C° 0 mm 2 mps 752 mmHg 69%
    22:00 +16°C° 0 mm 2 mps 752 mmHg 75%
    23:00 +16°C° 0 mm 2 mps 752 mmHg 74%

    Tomorrow, 22 November, Wednesday

    Time Temperature Precipitation Wind Pressure Humidity
    00:00 +15°C° 0 mm 2 mps 752 mmHg 74%
    01:00 +15°C° 0 mm 2 mps 752 mmHg 73%
    02:00 +15°C° 0 mm 2 mps 752 mmHg 74%
    03:00 +15°C° 0 mm 2 mps 752 mmHg 74%
    04:00 +13°C° 0 mm 3 mps 751 mmHg 74%
    05:00 +17°C° 0 mm 2 mps 751 mmHg 66%
    06:00 +19°C° 0 mm 2 mps 751 mmHg 59%
    07:00 +21°C° 0 mm 2 mps 751 mmHg 51%
    08:00 +25°C° 0 mm 2 mps 751 mmHg 43%
    09:00 +28°C° 0 mm 3 mps 751 mmHg 35%
    10:00 +31°C° 0 mm 3 mps 751 mmHg 27%
    11:00 +33°C° 0 mm 3 mps 751 mmHg 25%
    12:00 +33°C° 0 mm 3 mps 750 mmHg 23%
    13:00 +34°C° 0 mm 4 mps 750 mmHg 21%
    14:00 +33°C° 0 mm 4 mps 750 mmHg 23%
    15:00 +32°C° 0 mm 4 mps 749 mmHg 26%
    16:00 +30°C° 0 mm 4 mps 749 mmHg 29%
    17:00 +28°C° 0 mm 4 mps 749 mmHg 38%
    18:00 +26°C° 0 mm 3 mps 749 mmHg 46%
    19:00 +22°C° 0 mm 3 mps 749 mmHg 55%
    20:00 +21°C° 0 mm 3 mps 749 mmHg 61%
    21:00 +19°C° 0 mm 2 mps 750 mmHg 66%
    22:00 +17°C° 0 mm 2 mps 750 mmHg 72%
    23:00 +17°C° 0 mm 2 mps 749 mmHg 73%

    Day after tomorrow, 23 November, Thursday

    Time Temperature Precipitation Wind Pressure Humidity
    00:00 +16°C° 0 mm 3 mps 749 mmHg 74%
    01:00 +16°C° 0 mm 3 mps 749 mmHg 75%
    02:00 +16°C° 0 mm 3 mps 748 mmHg 76%
    03:00 +14°C° 0 mm 3 mps 748 mmHg 78%
    04:00 +14°C° 0 mm 3 mps 748 mmHg 79%
    05:00 +17°C° 0 mm 3 mps 748 mmHg 72%
    06:00 +19°C° 0 mm 3 mps 748 mmHg 65%
    07:00 +21°C° 0 mm 3 mps 748 mmHg 59%
    08:00 +24°C° 0 mm 3 mps 748 mmHg 51%
    09:00 +27°C° 0 mm 3 mps 747 mmHg 43%
    10:00 +29°C° 0 mm 3 mps 747 mmHg 34%
    11:00 +30°C° 0 mm 4 mps 747 mmHg 32%
    12:00 +33°C° 0 mm 4 mps 747 mmHg 29%
    13:00 +34°C° 0 mm 4 mps 746 mmHg 26%
    14:00 +32°C° 0.1 mm 4 mps 746 mmHg 32%
    15:00 +29°C° 0.1 mm 4 mps 746 mmHg 39%
    16:00 +27°C° 0.1 mm 4 mps 746 mmHg 45%
    17:00 +25°C° 1.2 mm 4 mps 746 mmHg 58%
    18:00 +21°C° 1.2 mm 3 mps 746 mmHg 71%
    19:00 +19°C° 1.2 mm 2 mps 746 mmHg 85%
    20:00 +18°C° 0.9 mm 2 mps 746 mmHg 88%
    21:00 +18°C° 0.9 mm 1 mps 746 mmHg 91%
    22:00 +15°C° 0.9 mm 1 mps 746 mmHg 94%
    23:00 +15°C° 0.3 mm 1 mps 746 mmHg 94%

    24 November, Friday

    Time Temperature Precipitation Wind Pressure Humidity
    00:00 +15°C° 0.3 mm 1 mps 746 mmHg 94%
    01:00 +15°C° 0.3 mm 1 mps 745 mmHg 94%
    02:00 +14°C° 0 mm 1 mps 745 mmHg 94%
    03:00 +14°C° 0 mm 1 mps 745 mmHg 94%
    04:00 +14°C° 0 mm 1 mps 745 mmHg 94%
    05:00 +16°C° 0 mm 1 mps 746 mmHg 89%
    06:00 +18°C° 0 mm 1 mps 746 mmHg 83%
    07:00 +20°C° 0 mm 1 mps 747 mmHg 77%
    08:00 +21°C° 0 mm 1 mps 747 mmHg 71%
    09:00 +23°C° 0 mm 2 mps 747 mmHg 64%
    10:00 +24°C° 0 mm 2 mps 747 mmHg 57%
    11:00 +24°C° 0 mm 2 mps 747 mmHg 55%
    12:00 +25°C° 0 mm 2 mps 747 mmHg 53%
    13:00 +25°C° 0 mm 2 mps 747 mmHg 52%
    14:00 +24°C° 0.2 mm 2 mps 747 mmHg 58%
    15:00 +23°C° 0.2 mm 2 mps 747 mmHg 64%
    16:00 +21°C° 0.2 mm 2 mps 747 mmHg 71%
    17:00 +21°C° 0 mm 2 mps 747 mmHg 73%
    18:00 +20°C° 0 mm 2 mps 748 mmHg 76%
    19:00 +19°C° 0 mm 2 mps 748 mmHg 78%
    20:00 +17°C° 0 mm 2 mps 748 mmHg 84%
    21:00 +16°C° 0 mm 1 mps 749 mmHg 91%
    22:00 +14°C° 0 mm 1 mps 749 mmHg 97%
    23:00 +14°C° 0 mm 1 mps 749 mmHg 97%

    25 November, Saturday

    Time Temperature Precipitation Wind Pressure Humidity
    00:00 +13°C° 0 mm 1 mps 749 mmHg 98%
    01:00 +13°C° 0 mm 1 mps 749 mmHg 98%
    02:00 +12°C° 0 mm 0 mps 749 mmHg 98%
    03:00 +12°C° 0 mm 0 mps 749 mmHg 98%
    04:00 +12°C° 0 mm 0 mps 748 mmHg 98%
    05:00 +14°C° 0 mm 0 mps 749 mmHg 93%
    06:00 +16°C° 0 mm 0 mps 749 mmHg 87%
    07:00 +17°C° 0 mm 0 mps 749 mmHg 82%
    08:00 +23°C° 0 mm 1 mps 749 mmHg 69%
    09:00 +26°C° 0 mm 1 mps 749 mmHg 57%
    10:00 +29°C° 0 mm 2 mps 750 mmHg 44%
    11:00 +28°C° 0.5 mm 2 mps 749 mmHg 52%
    12:00 +27°C° 0.5 mm 3 mps 749 mmHg 59%
    13:00 +25°C° 0.5 mm 3 mps 749 mmHg 66%
    14:00 +25°C° 0.8 mm 3 mps 749 mmHg 71%
    15:00 +24°C° 0.8 mm 2 mps 749 mmHg 77%
    16:00 +23°C° 0.8 mm 2 mps 749 mmHg 82%
    17:00 +23°C° 0.2 mm 2 mps 749 mmHg 86%
    18:00 +21°C° 0.2 mm 2 mps 749 mmHg 89%
    19:00 +20°C° 0.2 mm 2 mps 749 mmHg 93%
    20:00 +19°C° 0.1 mm 2 mps 749 mmHg 95%
    21:00 +18°C° 0.1 mm 2 mps 749 mmHg 96%
    22:00 +17°C° 0.1 mm 2 mps 749 mmHg 98%
    23:00 +17°C° 0.1 mm 2 mps 749 mmHg 97%

    26 November, Sunday

    Time Temperature Precipitation Wind Pressure Humidity
    00:00 +16°C° 0.1 mm 2 mps 748 mmHg 97%
    01:00 +16°C° 0.1 mm 2 mps 748 mmHg 97%
    02:00 +16°C° 0 mm 2 mps 748 mmHg 95%
    03:00 +16°C° 0 mm 2 mps 747 mmHg 93%
    04:00 +15°C° 0 mm 2 mps 747 mmHg 92%
    05:00 +17°C° 0 mm 2 mps 747 mmHg 86%
    06:00 +19°C° 0 mm 2 mps 747 mmHg 81%
    07:00 +20°C° 0 mm 2 mps 747 mmHg 75%
    08:00 +24°C° 0 mm 3 mps 747 mmHg 63%
    09:00 +27°C° 0 mm 3 mps 747 mmHg 51%
    10:00 +30°C° 0 mm 4 mps 747 mmHg 39%
    11:00 +30°C° 0.1 mm 4 mps 746 mmHg 40%
    12:00 +30°C° 0.1 mm 5 mps 746 mmHg 41%
    13:00 +32°C° 0.1 mm 6 mps 746 mmHg 42%
    14:00 +28°C° 0.7 mm 5 mps 745 mmHg 56%
    15:00 +25°C° 0.7 mm 4 mps 745 mmHg 70%
    16:00 +22°C° 0.7 mm 4 mps 745 mmHg 85%
    17:00 +21°C° 0.6 mm 3 mps 745 mmHg 87%
    18:00 +21°C° 0.6 mm 2 mps 746 mmHg 90%
    19:00 +20°C° 0.6 mm 2 mps 746 mmHg 92%
    20:00 +20°C° 0.5 mm 1 mps 746 mmHg 94%
    21:00 +20°C° 0.5 mm 1 mps 746 mmHg 95%
    22:00 +19°C° 0.5 mm 1 mps 746 mmHg 96%
    23:00 +19°C° 0.3 mm 1 mps 746 mmHg 96%
    Show more